sat.trackr.live / text

‹ back to catalog

ONEWEB-0440

NORAD 50503 · 2021-132AL

PAYLOAD ACTIVE UNKNOWN

§ Identity

Operator
Country
UK
Launch date
2021-12-27
Launch site
TYMSC
Launch vehicle
Mass (kg)
RCS (m²)

Purposes: comms

External: N2YO · Heavens-Above · Gunter

§ Orbital elements

Epoch: 2026-05-25T01:17:08.951712Z

Period
109.20 min
Inclination
87.9171°
Eccentricity
0.0001894
Mean motion
13.18687888 rev/d
Perigee alt
1,188.3 km
Apogee alt
1,191.2 km
Semi-major
7,567.9 km
B*
3.0630e-5
RAAN
340.0567°
Arg perigee
78.3462°
Mean anomaly
281.7883°
Rev number
21,852

§ Raw data

ONEWEB-04401 50503U 21132AL  26145.05357583  .00000025  00000+0  30630-4 0  99982 50503  87.9171 340.0567 0001894  78.3462 281.7883 13.18687888218528

JSON: /api/v1/satellites/50503 · /tle

For live sub-satellite position, see the globe view (requires WebGL).

§ Visibility from observer

Set your observer location to see the next 7 days of passes ≥ 10°. The values pass through the URL so the page stays shareable.

No JS? Fill the form by hand. The geolocation button needs JavaScript.